| time (UTC) | temp C | wind direction | speed KPH | gust KPH | rain 1hr cm | rain 24hr cm | rain mn cm | humidity % | barometer mb |
| 20260510033704 | 22 | 115 | 0.0 | 0.0 | 0.00 | 0.05 | 0.05 | 82 | 1009.3 |
| 20260510033203 | 22 | 115 | 0.0 | 0.0 | 0.00 | 0.05 | 0.05 | 81 | 1009.3 |
| 20260510032704 | 23 | 115 | 0.0 | 0.0 | 0.00 | 0.05 | 0.05 | 81 | 1009.2 |
| 20260510031703 | 23 | 115 | 0.0 | 0.0 | 0.00 | 0.05 | 0.05 | 82 | 1009.1 |
| 20260510031204 | 23 | 115 | 0.0 | 0.0 | 0.00 | 0.05 | 0.05 | 81 | 1009.0 |
| 20260510030704 | 23 | 115 | 0.0 | 0.0 | 0.00 | 0.05 | 0.05 | 81 | 1009.0 |
| 20260510030203 | 23 | 115 | 0.0 | 0.0 | 0.00 | 0.05 | 0.05 | 81 | 1008.9 |
| 20260510025704 | 23 | 115 | 0.0 | 0.0 | 0.00 | 0.05 | 0.05 | 82 | 1008.8 |
| 20260510024704 | 23 | 115 | 0.0 | 0.0 | 0.00 | 0.05 | 0.05 | 81 | 1008.6 |
| 20260510024204 | 23 | 115 | 0.0 | 0.0 | 0.00 | 0.05 | 0.05 | 81 | 1008.6 |
| 20260510023704 | 24 | 115 | 0.0 | 0.0 | 0.00 | 0.05 | 0.05 | 81 | 1008.5 |
| 20260510023204 | 24 | 115 | 0.0 | 0.0 | 0.00 | 0.05 | 0.05 | 80 | 1008.4 |
| 20260510022704 | 24 | 115 | 0.0 | 0.0 | 0.00 | 0.05 | 0.05 | 79 | 1008.3 |
| 20260510022203 | 25 | 115 | 0.0 | 0.0 | 0.00 | 0.05 | 0.05 | 79 | 1008.3 |
| 20260510021703 | 25 | 115 | 0.0 | 0.0 | 0.00 | 0.05 | 0.05 | 78 | 1008.3 |
| 20260510021203 | 25 | 115 | 0.0 | 0.0 | 0.00 | 0.05 | 0.05 | 78 | 1008.2 |
| 20260510020703 | 25 | 115 | 0.0 | 0.0 | 0.00 | 0.05 | 0.05 | 77 | 1008.2 |
| 20260510020203 | 25 | 115 | 0.0 | 0.0 | 0.00 | 0.05 | 0.05 | 76 | 1008.1 |
| 20260510015704 | 25 | 115 | 0.0 | 0.0 | 0.00 | 0.05 | 0.05 | 76 | 1008.0 |
| 20260510015204 | 25 | 115 | 0.0 | 0.0 | 0.00 | 0.05 | 0.05 | 76 | 1008.0 |
| 20260510014704 | 26 | 115 | 0.0 | 0.0 | 0.00 | 0.05 | 0.05 | 75 | 1007.9 |
| 20260510014203 | 26 | 115 | 0.0 | 0.0 | 0.00 | 0.05 | 0.05 | 75 | 1007.8 |
| 20260510013704 | 26 | 115 | 0.0 | 0.0 | 0.00 | 0.05 | 0.05 | 74 | 1007.8 |
| 20260510013204 | 26 | 115 | 0.0 | 0.0 | 0.00 | 0.05 | 0.05 | 74 | 1007.7 |
| 20260510012704 | 26 | 115 | 0.0 | 0.0 | 0.00 | 0.05 | 0.05 | 73 | 1007.7 |
| 20260510012204 | 26 | 115 | 0.0 | 0.0 | 0.00 | 0.05 | 0.05 | 73 | 1007.6 |
| 20260510011704 | 26 | 115 | 0.0 | 0.0 | 0.00 | 0.05 | 0.05 | 73 | 1007.6 |
| 20260510010704 | 27 | 115 | 0.0 | 0.0 | 0.00 | 0.05 | 0.05 | 74 | 1007.5 |
| 20260510004704 | 27 | 115 | 0.0 | 0.0 | 0.00 | 0.05 | 0.05 | 72 | 1007.4 |
| 20260510004203 | 28 | 115 | 0.0 | 0.0 | 0.00 | 0.05 | 0.05 | 71 | 1007.4 |
| 20260510003703 | 28 | 115 | 0.0 | 0.0 | 0.00 | 0.05 | 0.05 | 70 | 1007.4 |
| 20260510003203 | 28 | 115 | 0.0 | 0.0 | 0.00 | 0.05 | 0.05 | 69 | 1007.4 |
| 20260510002703 | 28 | 115 | 0.0 | 0.0 | 0.00 | 0.05 | 0.05 | 68 | 1007.4 |
| 20260510001703 | 29 | 93 | 0.0 | 0.0 | 0.00 | 0.05 | 0.05 | 68 | 1007.2 |
| 20260510001204 | 29 | 93 | 0.0 | 0.0 | 0.00 | 0.05 | 0.05 | 67 | 1007.1 |
| 20260510000703 | 30 | 100 | 0.0 | 3.2 | 0.00 | 0.05 | 0.05 | 67 | 1007.1 |
| 20260510000204 | 30 | 98 | 0.0 | 0.0 | 0.00 | 0.05 | 0.05 | 66 | 1007.1 |
| 20260509235703 | 30 | 94 | 0.0 | 0.0 | 0.00 | 0.05 | 0.05 | 66 | 1007.1 |
| 20260509235203 | 30 | 91 | 0.0 | 0.0 | 0.00 | 0.05 | 0.05 | 65 | 1007.0 |
| 20260509234703 | 30 | 91 | 0.0 | 0.0 | 0.00 | 0.05 | 0.05 | 64 | 1007.0 |
| 20260509234204 | 30 | 90 | 0.0 | 1.6 | 0.00 | 0.05 | 0.05 | 65 | 1006.9 |
| 20260509233704 | 30 | 90 | 0.0 | 0.0 | 0.00 | 0.05 | 0.05 | 65 | 1006.9 |
| 20260509233204 | 30 | 90 | 0.0 | 0.0 | 0.00 | 0.05 | 0.05 | 64 | 1006.9 |
| 20260509232703 | 30 | 90 | 0.0 | 0.0 | 0.00 | 0.05 | 0.05 | 64 | 1006.9 |
| 20260509232204 | 30 | 90 | 0.0 | 0.0 | 0.00 | 0.05 | 0.05 | 64 | 1006.8 |
| 20260509231704 | 30 | 90 | 0.0 | 0.0 | 0.00 | 0.05 | 0.05 | 66 | 1006.8 |
| 20260509231204 | 30 | 90 | 0.0 | 0.0 | 0.00 | 0.05 | 0.05 | 66 | 1006.8 |
| 20260509230703 | 30 | 90 | 0.0 | 0.0 | 0.00 | 0.05 | 0.05 | 66 | 1006.7 |
| 20260509230204 | 30 | 90 | 0.0 | 0.0 | 0.00 | 0.05 | 0.05 | 66 | 1006.8 |
| 20260509225703 | 29 | 102 | 0.0 | 0.0 | 0.00 | 0.05 | 0.05 | 66 | 1006.7 |
| 20260509224204 | 28 | 343 | 0.0 | 0.0 | 0.00 | 0.05 | 0.05 | 70 | 1006.7 |
| 20260509223704 | 28 | 343 | 0.0 | 0.0 | 0.00 | 0.05 | 0.05 | 72 | 1006.7 |
| 20260509223204 | 27 | 343 | 0.0 | 0.0 | 0.00 | 0.05 | 0.05 | 73 | 1006.8 |
| 20260509222704 | 27 | 343 | 0.0 | 0.0 | 0.00 | 0.05 | 0.05 | 72 | 1006.8 |
| 20260509222203 | 27 | 343 | 0.0 | 0.0 | 0.00 | 0.05 | 0.05 | 73 | 1006.8 |
| 20260509221703 | 27 | 343 | 0.0 | 0.0 | 0.00 | 0.05 | 0.05 | 70 | 1006.8 |
| 20260509221203 | 26 | 343 | 0.0 | 0.0 | 0.00 | 0.05 | 0.05 | 71 | 1006.8 |
| 20260509220703 | 26 | 342 | 0.0 | 0.0 | 0.00 | 0.05 | 0.05 | 70 | 1006.7 |
| 20260509220203 | 26 | 344 | 0.0 | 0.0 | 0.00 | 0.05 | 0.05 | 71 | 1006.7 |
| 20260509215704 | 26 | 344 | 0.0 | 0.0 | 0.00 | 0.05 | 0.05 | 69 | 1006.8 |
| 20260509215203 | 26 | 344 | 0.0 | 0.0 | 0.00 | 0.05 | 0.05 | 67 | 1006.8 |
| 20260509214704 | 26 | 343 | 0.0 | 0.0 | 0.00 | 0.05 | 0.05 | 67 | 1006.9 |
| 20260509214203 | 26 | 344 | 0.0 | 0.0 | 0.00 | 0.05 | 0.05 | 67 | 1007.0 |
| 20260509213203 | 27 | 71 | 0.0 | 0.0 | 0.00 | 0.05 | 0.05 | 67 | 1007.1 |
| 20260509212703 | 27 | 312 | 0.0 | 0.0 | 0.00 | 0.05 | 0.05 | 68 | 1007.1 |
| 20260509212203 | 28 | 249 | 0.0 | 0.0 | 0.00 | 0.05 | 0.05 | 67 | 1007.1 |
| 20260509211703 | 28 | 272 | 0.0 | 1.6 | 0.00 | 0.05 | 0.05 | 67 | 1007.3 |
| 20260509211204 | 29 | 355 | 0.0 | 1.6 | 0.00 | 0.05 | 0.05 | 68 | 1007.4 |
| 20260509210203 | 30 | 306 | 0.0 | 0.0 | 0.00 | 0.05 | 0.05 | 65 | 1007.3 |
| 20260509205204 | 31 | 225 | 0.0 | 0.0 | 0.00 | 0.05 | 0.05 | 61 | 1007.2 |
| 20260509204703 | 31 | 225 | 0.0 | 0.0 | 0.00 | 0.05 | 0.05 | 61 | 1007.5 |
| 20260509204203 | 31 | 225 | 0.0 | 0.0 | 0.00 | 0.05 | 0.05 | 62 | 1007.3 |
| 20260509203704 | 31 | 225 | 0.0 | 0.0 | 0.00 | 0.05 | 0.05 | 64 | 1007.1 |
| 20260509203203 | 31 | 224 | 0.0 | 0.0 | 0.00 | 0.05 | 0.05 | 61 | 1007.2 |
| 20260509202703 | 32 | 254 | 0.0 | 0.0 | 0.00 | 0.05 | 0.05 | 62 | 1007.5 |
| 20260509202203 | 32 | 254 | 0.0 | 0.0 | 0.00 | 0.05 | 0.05 | 62 | 1007.4 |
| 20260509200704 | 32 | 217 | 0.0 | 0.0 | 0.00 | 0.05 | 0.05 | 59 | 1008.0 |
| 20260509200204 | 32 | 238 | 0.0 | 0.0 | 0.00 | 0.05 | 0.05 | 59 | 1008.1 |
| 20260509195704 | 32 | 280 | 0.0 | 1.6 | 0.00 | 0.05 | 0.05 | 63 | 1008.1 |
| 20260509195204 | 32 | 70 | 0.0 | 0.0 | 0.00 | 0.05 | 0.05 | 62 | 1008.2 |
| 20260509194203 | 31 | 185 | 0.0 | 0.0 | 0.00 | 0.05 | 0.05 | 64 | 1008.1 |
| 20260509193703 | 31 | 185 | 1.6 | 9.7 | 0.00 | 0.05 | 0.05 | 64 | 1008.0 |
| 20260509193203 | 31 | 197 | 0.0 | 0.0 | 0.00 | 0.05 | 0.05 | 65 | 1008.1 |
| 20260509192704 | 31 | 197 | 0.0 | 0.0 | 0.00 | 0.05 | 0.05 | 63 | 1008.3 |
| 20260509192203 | 31 | 201 | 0.0 | 4.8 | 0.00 | 0.05 | 0.05 | 65 | 1008.2 |
| 20260509191703 | 31 | 188 | 0.0 | 0.0 | 0.00 | 0.05 | 0.05 | 65 | 1008.2 |
| 20260509191204 | 31 | 197 | 0.0 | 4.8 | 0.00 | 0.05 | 0.05 | 64 | 1008.2 |
| 20260509190704 | 31 | 113 | 0.0 | 0.0 | 0.00 | 0.05 | 0.05 | 65 | 1008.4 |
| 20260509190204 | 30 | 100 | 0.0 | 0.0 | 0.00 | 0.05 | 0.05 | 66 | 1008.4 |
| 20260509185704 | 30 | 95 | 0.0 | 0.0 | 0.00 | 0.05 | 0.05 | 65 | 1008.6 |
| 20260509185203 | 30 | 193 | 0.0 | 0.0 | 0.00 | 0.05 | 0.05 | 66 | 1008.8 |
| 20260509184704 | 30 | 218 | 0.0 | 0.0 | 0.00 | 0.05 | 0.05 | 67 | 1008.9 |
| 20260509184204 | 30 | 225 | 0.0 | 0.0 | 0.00 | 0.05 | 0.05 | 69 | 1009.0 |
| 20260509183703 | 30 | 248 | 0.0 | 0.0 | 0.00 | 0.05 | 0.05 | 69 | 1009.1 |
| 20260509183203 | 30 | 187 | 0.0 | 0.0 | 0.00 | 0.05 | 0.05 | 71 | 1009.2 |
| 20260509181204 | 30 | 189 | 0.0 | 0.0 | 0.00 | 0.05 | 0.05 | 70 | 1009.4 |
| 20260509180703 | 30 | 200 | 0.0 | 0.0 | 0.00 | 0.05 | 0.05 | 72 | 1009.4 |
| 20260509180204 | 30 | 268 | 0.0 | 0.0 | 0.00 | 0.05 | 0.05 | 69 | 1009.5 |
| 20260509175704 | 30 | 181 | 0.0 | 0.0 | 0.00 | 0.05 | 0.05 | 69 | 1009.5 |
| 20260509175204 | 30 | 251 | 0.0 | 0.0 | 0.00 | 0.05 | 0.05 | 71 | 1009.6 |
| 20260509174703 | 30 | 184 | 0.0 | 0.0 | 0.00 | 0.05 | 0.05 | 73 | 1009.6 |
| 20260509174203 | 29 | 200 | 0.0 | 0.0 | 0.00 | 0.05 | 0.05 | 75 | 1009.7 |
| 20260509173703 | 29 | 208 | 0.0 | 0.0 | 0.00 | 0.05 | 0.05 | 74 | 1009.7 |
| 20260509173203 | 29 | 250 | 0.0 | 0.0 | 0.00 | 0.05 | 0.05 | 74 | 1009.7 |
| 20260509172703 | 28 | 204 | 0.0 | 0.0 | 0.00 | 0.05 | 0.05 | 75 | 1009.7 |
| 20260509172204 | 28 | 182 | 0.0 | 0.0 | 0.00 | 0.05 | 0.05 | 77 | 1009.7 |
| 20260509171203 | 28 | 208 | 0.0 | 0.0 | 0.00 | 0.05 | 0.05 | 77 | 1009.6 |
| 20260509170703 | 27 | 224 | 0.0 | 0.0 | 0.00 | 0.05 | 0.05 | 80 | 1009.6 |
| 20260509170204 | 27 | 222 | 0.0 | 0.0 | 0.00 | 0.05 | 0.05 | 80 | 1009.7 |
| 20260509165703 | 27 | 193 | 0.0 | 1.6 | 0.00 | 0.05 | 0.05 | 80 | 1009.8 |
| 20260509165204 | 27 | 191 | 0.0 | 0.0 | 0.00 | 0.05 | 0.05 | 80 | 1009.9 |
| 20260509164204 | 27 | 198 | 0.0 | 0.0 | 0.00 | 0.05 | 0.05 | 82 | 1009.9 |
| 20260509163704 | 26 | 198 | 0.0 | 1.6 | 0.00 | 0.05 | 0.05 | 83 | 1009.9 |
| 20260509163203 | 26 | 184 | 0.0 | 4.8 | 0.00 | 0.05 | 0.05 | 86 | 1010.0 |
| 20260509162703 | 26 | 164 | 0.0 | 0.0 | 0.00 | 0.05 | 0.05 | 90 | 1009.9 |
| 20260509162204 | 25 | 161 | 0.0 | 0.0 | 0.00 | 0.05 | 0.05 | 90 | 1009.9 |
| 20260509161204 | 25 | 110 | 0.0 | 0.0 | 0.00 | 0.05 | 0.05 | 94 | 1009.8 |
| 20260509160704 | 24 | 110 | 0.0 | 0.0 | 0.00 | 0.05 | 0.05 | 96 | 1009.9 |
| 20260509155203 | 23 | 186 | 0.0 | 0.0 | 0.00 | 0.05 | 0.05 | 96 | 1010.0 |
| 20260509154704 | 23 | 189 | 0.0 | 0.0 | 0.00 | 0.05 | 0.05 | 97 | 1010.0 |
| 20260509154204 | 23 | 189 | 0.0 | 0.0 | 0.00 | 0.05 | 0.05 | 97 | 1009.9 |
| 20260509153703 | 23 | 189 | 0.0 | 0.0 | 0.00 | 0.05 | 0.05 | 96 | 1009.8 |
| 20260509153203 | 23 | 189 | 0.0 | 0.0 | 0.00 | 0.05 | 0.05 | 96 | 1009.8 |
| 20260509152703 | 23 | 189 | 0.0 | 3.2 | 0.00 | 0.05 | 0.05 | 96 | 1009.8 |
| 20260509152203 | 23 | 183 | 1.6 | 4.8 | 0.00 | 0.05 | 0.05 | 97 | 1009.9 |
| 20260509151704 | 23 | 200 | 0.0 | 1.6 | 0.00 | 0.05 | 0.05 | 96 | 1009.9 |
| 20260509150703 | 23 | 255 | 0.0 | 0.0 | 0.00 | 0.05 | 0.05 | 97 | 1009.9 |
| 20260509150203 | 23 | 255 | 0.0 | 0.0 | 0.00 | 0.05 | 0.05 | 97 | 1010.1 |
| 20260509145703 | 23 | 256 | 0.0 | 0.0 | 0.00 | 0.05 | 0.05 | 97 | 1009.9 |
| 20260509144704 | 23 | 279 | 0.0 | 0.0 | 0.00 | 0.05 | 0.05 | 97 | 1009.8 |
| 20260509144204 | 23 | 279 | 0.0 | 0.0 | 0.00 | 0.05 | 0.05 | 97 | 1009.9 |
| 20260509143704 | 23 | 279 | 0.0 | 0.0 | 0.00 | 0.05 | 0.05 | 97 | 1010.0 |
| 20260509143204 | 23 | 279 | 0.0 | 0.0 | 0.00 | 0.05 | 0.05 | 96 | 1010.0 |
| 20260509142704 | 23 | 279 | 0.0 | 0.0 | 0.00 | 0.05 | 0.05 | 96 | 1009.9 |
| 20260509142203 | 22 | 279 | 0.0 | 0.0 | 0.00 | 0.05 | 0.05 | 96 | 1009.8 |
| 20260509141704 | 22 | 279 | 0.0 | 0.0 | 0.00 | 0.05 | 0.05 | 96 | 1009.8 |
| 20260509141204 | 23 | 279 | 0.0 | 0.0 | 0.00 | 0.05 | 0.05 | 97 | 1009.7 |
| 20260509140204 | 22 | 279 | 0.0 | 0.0 | 0.00 | 0.05 | 0.05 | 97 | 1009.8 |
| 20260509135704 | 22 | 279 | 0.0 | 0.0 | 0.00 | 0.05 | 0.05 | 96 | 1009.9 |
| 20260509134704 | 22 | 279 | 0.0 | 0.0 | 0.00 | 0.05 | 0.05 | 96 | 1009.9 |
| 20260509134204 | 22 | 279 | 0.0 | 0.0 | 0.00 | 0.05 | 0.05 | 96 | 1009.9 |
| 20260509133703 | 22 | 279 | 0.0 | 0.0 | 0.00 | 0.05 | 0.05 | 96 | 1010.0 |
| 20260509133204 | 22 | 279 | 0.0 | 0.0 | 0.00 | 0.05 | 0.05 | 96 | 1010.1 |
| 20260509132704 | 22 | 279 | 0.0 | 0.0 | 0.00 | 0.05 | 0.05 | 96 | 1010.0 |
| 20260509132204 | 22 | 279 | 0.0 | 0.0 | 0.00 | 0.05 | 0.05 | 96 | 1009.9 |
| 20260509131703 | 22 | 279 | 0.0 | 0.0 | 0.00 | 0.05 | 0.05 | 96 | 1009.8 |
| 20260509131204 | 22 | 280 | 0.0 | 0.0 | 0.00 | 0.05 | 0.05 | 96 | 1009.7 |
| 20260509130703 | 22 | 280 | 0.0 | 0.0 | 0.00 | 0.05 | 0.05 | 96 | 1009.9 |
| 20260509125703 | 22 | 280 | 0.0 | 0.0 | 0.00 | 0.05 | 0.05 | 96 | 1009.7 |
| 20260509125204 | 22 | 280 | 0.0 | 0.0 | 0.00 | 0.05 | 0.05 | 96 | 1009.8 |
| 20260509124704 | 22 | 280 | 0.0 | 0.0 | 0.00 | 0.05 | 0.05 | 96 | 1009.8 |
| 20260509124203 | 22 | 280 | 0.0 | 0.0 | 0.00 | 0.05 | 0.05 | 96 | 1009.8 |
| 20260509123704 | 22 | 280 | 0.0 | 0.0 | 0.00 | 0.05 | 0.05 | 96 | 1009.7 |
| 20260509122704 | 22 | 280 | 0.0 | 0.0 | 0.00 | 0.05 | 0.05 | 96 | 1009.7 |
| 20260509122204 | 22 | 280 | 0.0 | 0.0 | 0.00 | 0.05 | 0.05 | 96 | 1009.8 |
| 20260509121703 | 22 | 280 | 0.0 | 0.0 | 0.00 | 0.05 | 0.05 | 96 | 1009.7 |
| 20260509121203 | 22 | 280 | 0.0 | 0.0 | 0.00 | 0.05 | 0.05 | 96 | 1009.7 |
| 20260509120703 | 22 | 280 | 0.0 | 0.0 | 0.00 | 0.05 | 0.05 | 96 | 1009.6 |
| 20260509120204 | 22 | 280 | 0.0 | 0.0 | 0.00 | 0.05 | 0.05 | 96 | 1009.6 |
| 20260509115704 | 22 | 282 | 0.0 | 1.6 | 0.00 | 0.05 | 0.05 | 96 | 1009.7 |
| 20260509115203 | 22 | 40 | 0.0 | 0.0 | 0.00 | 0.05 | 0.05 | 96 | 1009.5 |
| 20260509114704 | 22 | 23 | 0.0 | 4.8 | 0.00 | 0.05 | 0.05 | 96 | 1009.4 |
| 20260509113704 | 22 | 269 | 0.0 | 0.0 | 0.00 | 0.05 | 0.05 | 96 | 1009.3 |
| 20260509112703 | 22 | 318 | 0.0 | 3.2 | 0.00 | 0.05 | 0.05 | 96 | 1009.5 |
| 20260509112203 | 22 | 311 | 0.0 | 0.0 | 0.00 | 0.05 | 0.05 | 96 | 1009.6 |
| 20260509111703 | 22 | 21 | 0.0 | 1.6 | 0.00 | 0.05 | 0.05 | 96 | 1009.7 |
| 20260509111203 | 22 | 301 | 0.0 | 0.0 | 0.00 | 0.05 | 0.05 | 96 | 1009.8 |
| 20260509110703 | 22 | 301 | 0.0 | 0.0 | 0.00 | 0.05 | 0.05 | 96 | 1009.8 |
| 20260509110204 | 22 | 301 | 0.0 | 0.0 | 0.00 | 0.05 | 0.05 | 96 | 1009.8 |
| 20260509105703 | 22 | 301 | 0.0 | 0.0 | 0.00 | 0.05 | 0.05 | 96 | 1010.0 |
| 20260509105204 | 22 | 301 | 0.0 | 0.0 | 0.00 | 0.05 | 0.05 | 96 | 1010.4 |
| 20260509104704 | 22 | 301 | 0.0 | 0.0 | 0.00 | 0.05 | 0.05 | 96 | 1010.4 |
| 20260509104204 | 22 | 301 | 0.0 | 0.0 | 0.00 | 0.05 | 0.05 | 96 | 1010.2 |
| 20260509103703 | 22 | 301 | 0.0 | 3.2 | 0.00 | 0.05 | 0.05 | 96 | 1010.2 |
| 20260509103203 | 22 | 189 | 0.0 | 0.0 | 0.00 | 0.05 | 0.05 | 96 | 1010.1 |
| 20260509102704 | 22 | 189 | 0.0 | 0.0 | 0.00 | 0.05 | 0.05 | 96 | 1010.1 |
| 20260509101704 | 22 | 189 | 0.0 | 0.0 | 0.00 | 0.05 | 0.05 | 96 | 1009.6 |
| 20260509100204 | 22 | 189 | 0.0 | 0.0 | 0.00 | 0.05 | 0.05 | 96 | 1009.4 |
| 20260509095203 | 22 | 189 | 0.0 | 0.0 | 0.00 | 0.05 | 0.05 | 95 | 1009.3 |
| 20260509094204 | 22 | 189 | 0.0 | 0.0 | 0.03 | 0.05 | 0.05 | 95 | 1009.2 |
| 20260509093704 | 22 | 189 | 0.0 | 0.0 | 0.03 | 0.05 | 0.05 | 95 | 1009.1 |
| 20260509093204 | 22 | 189 | 0.0 | 0.0 | 0.05 | 0.05 | 0.05 | 95 | 1009.1 |
| 20260509092704 | 22 | 189 | 0.0 | 0.0 | 0.05 | 0.05 | 0.05 | 95 | 1009.2 |
| 20260509092204 | 22 | 189 | 0.0 | 0.0 | 0.05 | 0.05 | 0.05 | 95 | 1009.2 |
| 20260509091203 | 22 | 189 | 0.0 | 0.0 | 0.05 | 0.05 | 0.05 | 95 | 1009.2 |
| 20260509090703 | 22 | 189 | 0.0 | 0.0 | 0.05 | 0.05 | 0.05 | 95 | 1008.9 |
| 20260509090204 | 22 | 189 | 0.0 | 0.0 | 0.05 | 0.05 | 0.05 | 95 | 1008.9 |
| 20260509085704 | 22 | 189 | 0.0 | 0.0 | 0.05 | 0.05 | 0.05 | 95 | 1008.8 |
| 20260509085204 | 22 | 189 | 0.0 | 0.0 | 0.05 | 0.05 | 0.05 | 95 | 1009.0 |
| 20260509084203 | 22 | 189 | 0.0 | 0.0 | 0.03 | 0.03 | 0.03 | 95 | 1009.3 |
| 20260509083704 | 22 | 189 | 0.0 | 0.0 | 0.03 | 0.03 | 0.03 | 95 | 1009.5 |
| 20260509083204 | 22 | 189 | 0.0 | 0.0 | 0.00 | 0.00 | 0.00 | 95 | 1009.6 |
| 20260509082204 | 22 | 189 | 0.0 | 0.0 | 0.00 | 0.00 | 0.00 | 95 | 1009.6 |
| 20260509081203 | 22 | 189 | 0.0 | 0.0 | 0.00 | 0.00 | 0.00 | 95 | 1009.6 |
| 20260509080704 | 22 | 189 | 0.0 | 0.0 | 0.00 | 0.00 | 0.00 | 95 | 1009.6 |
| 20260509075204 | 22 | 189 | 0.0 | 0.0 | 0.00 | 0.00 | 0.00 | 94 | 1009.3 |
| 20260509074204 | 22 | 189 | 0.0 | 0.0 | 0.00 | 0.00 | 0.00 | 94 | 1009.5 |
| 20260509073204 | 22 | 189 | 0.0 | 0.0 | 0.00 | 0.00 | 0.00 | 94 | 1009.5 |
| 20260509072704 | 22 | 189 | 0.0 | 0.0 | 0.00 | 0.00 | 0.00 | 94 | 1009.4 |
| 20260509071704 | 22 | 189 | 0.0 | 0.0 | 0.00 | 0.00 | 0.00 | 94 | 1009.2 |
| 20260509064703 | 22 | 189 | 0.0 | 0.0 | 0.00 | 0.00 | 0.00 | 94 | 1009.3 |
| 20260509064204 | 22 | 189 | 0.0 | 0.0 | 0.00 | 0.00 | 0.00 | 94 | 1009.4 |
| 20260509063704 | 22 | 189 | 0.0 | 0.0 | 0.00 | 0.00 | 0.00 | 94 | 1009.3 |
| 20260509063204 | 22 | 189 | 0.0 | 0.0 | 0.00 | 0.00 | 0.00 | 94 | 1009.2 |
| 20260509062704 | 22 | 189 | 0.0 | 0.0 | 0.00 | 0.00 | 0.00 | 94 | 1009.3 |
| 20260509062203 | 22 | 189 | 0.0 | 0.0 | 0.00 | 0.00 | 0.00 | 94 | 1009.2 |
| 20260509061705 | 22 | 189 | 0.0 | 0.0 | 0.00 | 0.00 | 0.00 | 94 | 1009.2 |
| 20260509061203 | 22 | 189 | 0.0 | 0.0 | 0.00 | 0.00 | 0.00 | 94 | 1009.1 |
| 20260509060703 | 22 | 189 | 0.0 | 0.0 | 0.00 | 0.00 | 0.00 | 94 | 1009.1 |
| 20260509060204 | 22 | 189 | 0.0 | 0.0 | 0.00 | 0.00 | 0.00 | 94 | 1009.1 |
| 20260509055703 | 22 | 189 | 0.0 | 1.6 | 0.00 | 0.00 | 0.00 | 94 | 1009.3 |
| 20260509055204 | 22 | 189 | 0.0 | 1.6 | 0.00 | 0.00 | 0.00 | 94 | 1009.3 |
| 20260509054703 | 22 | 185 | 0.0 | 4.8 | 0.00 | 0.00 | 0.00 | 94 | 1009.3 |
| 20260509054203 | 22 | 166 | 0.0 | 1.6 | 0.00 | 0.00 | 0.00 | 93 | 1009.3 |
| 20260509053703 | 22 | 168 | 0.0 | 0.0 | 0.00 | 0.00 | 0.00 | 93 | 1009.3 |
| 20260509053204 | 22 | 132 | 0.0 | 0.0 | 0.00 | 0.00 | 0.00 | 93 | 1009.3 |
| 20260509052704 | 22 | 125 | 0.0 | 0.0 | 0.00 | 0.00 | 0.00 | 93 | 1009.2 |
| 20260509052204 | 22 | 125 | 0.0 | 0.0 | 0.00 | 0.00 | 0.00 | 93 | 1009.0 |
| 20260509051704 | 22 | 125 | 0.0 | 0.0 | 0.00 | 0.00 | 0.00 | 93 | 1008.9 |
| 20260509051203 | 22 | 122 | 1.6 | 4.8 | 0.00 | 0.00 | 0.00 | 93 | 1009.1 |
| 20260509050704 | 22 | 166 | 0.0 | 0.0 | 0.00 | 0.00 | 0.00 | 93 | 1009.1 |
| 20260509045204 | 22 | 114 | 0.0 | 0.0 | 0.00 | 0.00 | 0.00 | 93 | 1009.2 |
| 20260509044204 | 22 | 100 | 0.0 | 0.0 | 0.00 | 0.00 | 0.00 | 93 | 1009.1 |
| 20260509043704 | 22 | 100 | 0.0 | 0.0 | 0.00 | 0.00 | 0.00 | 93 | 1009.1 |
| 20260509043204 | 22 | 100 | 0.0 | 0.0 | 0.00 | 0.00 | 0.00 | 92 | 1009.2 |
| 20260509042704 | 22 | 98 | 0.0 | 0.0 | 0.00 | 0.00 | 0.00 | 92 | 1009.2 |
| 20260509042203 | 22 | 98 | 0.0 | 0.0 | 0.00 | 0.00 | 0.00 | 92 | 1009.2 |
| 20260509040703 | 22 | 98 | 0.0 | 0.0 | 0.00 | 0.00 | 0.00 | 91 | 1009.4 |
| 20260509040204 | 22 | 98 | 0.0 | 0.0 | 0.00 | 0.00 | 0.00 | 91 | 1009.5 |
| 20260509035704 | 23 | 98 | 0.0 | 0.0 | 0.00 | 0.00 | 0.00 | 91 | 1009.5 |
| 20260509035204 | 23 | 98 | 0.0 | 0.0 | 0.00 | 0.00 | 0.00 | 91 | 1009.4 |
| 20260509034704 | 23 | 98 | 0.0 | 0.0 | 0.00 | 0.00 | 0.00 | 90 | 1009.2 |
| 20260509034204 | 23 | 98 | 0.0 | 0.0 | 0.00 | 0.00 | 0.00 | 90 | 1009.1 |